Regional Weather Roundup
Issued by NWS

Home | Current Version | Previous Version | Text Only | Print | Product List | Glossary Off
Versions: 1 2 3 4 5 6 7 8 9 10 11 12 13 14 15 16 17 18 19 20 21 22 23 24 25 26 27 28 29 30 31 32 33 34 35 36 37 38 39 40 41 42 43 44 45 46 47 48 49 50

000
ASUS43 KMPX 301201
RWRMN
WEATHER ROUNDUP FOR MINNESOTA
NATIONAL WEATHER SERVICE TWIN CITIES/CHANHASSEN MN
600 AM CST FRI JAN 30 2015


NOTE: "FAIR" INDICATES FEW OR NO CLOUDS BELOW 12,000 FEET WITH NO
SIGNIFICANT WEATHER AND/OR OBSTRUCTIONS TO VISIBILITY. N/A MEANS
CURRENT SKY AND/OR WEATHER CONDITIONS ARE NOT AVAILABLE.

MNZ060>063-068>070-301300-
   Twin Cities Metro

CITY           SKY/WX    TMP DP  RH WIND       PRES   REMARKS
TWIN CITIES    MOCLDY    12   3  67 NE5       30.52F WCI   4
6HR MIN TEMP:  12; 6HR MAX TEMP:  15;

ST PAUL        PTCLDY    11   3  70 CALM      30.55F
CRYSTAL        MOCLDY    12   4  70 CALM      30.51F
BLAINE         PTCLDY    12   7  79 CALM      30.50F
LAKEVILLE      PTCLDY    10   7  85 CALM      30.51S
EDEN PRAIRIE   MOCLDY    13   6  74 CALM      30.50F
6HR MIN TEMP:  11; 6HR MAX TEMP:  15;

SOUTH ST PAUL  PTCLDY    12   4  69 CALM      30.52F
LAKE ELMO      FAIR      10   5  79 CALM      30.53S
$$
MNZ001>005-007-008-013>017-022>024-027-028-301300-
   Northwest Minnesota

CITY           SKY/WX    TMP DP  RH WIND       PRES   REMARKS
BEMIDJI        MOCLDY     1  -2  85 S6        30.42F WCI -10
HALLOCK        LGT SNOW   7   1  78 S13       30.41F WCI  -9
ROSEAU         CLOUDY     3  -2  78 S9        30.42F WCI -11
WARROAD        PTCLDY     1  -6  71 S5        30.42F WCI  -8
THIEF RVR FALL CLOUDY     5   1  85 S7        30.43F WCI  -7
CROOKSTON      CLOUDY     9   3  78 S8        30.46F WCI  -4
FOSSTON        CLOUDY     3   0  85 S8        30.43F WCI -10
DETROIT LAKES  PTCLDY     9   5  85 S7        30.43F WCI  -3
MOORHEAD       MOCLDY    10   7  85 SE8       30.46F WCI  -1
PARK RAPIDS    MOCLDY     5   1  83 S5        30.42F WCI  -4
MAHNOMEN       CLOUDY     6   1  79 S6        30.44S WCI  -5
$$
MNZ006-009>011-018-025>026-301300-
   North Central Minnesota

CITY           SKY/WX    TMP DP  RH WIND       PRES   REMARKS
BAUDETTE       CLOUDY    -2  -7  79 CALM      30.42F
FLAG ISLAND    CLOUDY     0  -6  78 S10       30.41F WCI -17
INTL FALLS     MOCLDY   -10 -14  82 CALM      30.44F
6HR MIN TEMP: -19; 6HR MAX TEMP:  -8;

WASKISH        CLOUDY     0  -6  78 CALM      30.44F
BIG FORK       PTCLDY    -6  -9  84 CALM      30.44S
LONGVILLE      CLOUDY     1  -2  85 CALM      30.45F
GRAND RAPIDS   CLOUDY     0  -2  92 CALM      30.43S
CRANE LAKE     MOCLDY    -9 -13  84 CALM      30.47F
ORR            CLOUDY    -9 -15  77 CALM      30.41S
COOK           MOCLDY    -9 -15  77 CALM      30.44S
WALKER         CLOUDY     2  -2  83 CALM      30.44F
$$
MNZ012-019>021-037-301300-
   Northeast Minnesota

CITY           SKY/WX    TMP DP  RH WIND       PRES   REMARKS
DULUTH         MOCLDY    -1  -6  79 NW6       30.43R WCI -13
6HR MIN TEMP:  -1; 6HR MAX TEMP:   6; 6HR PCP: TRACE;

ELY            MOCLDY    -2  -6  84 CALM      30.41F
HIBBING        MOCLDY    -7 -13  75 CALM      30.43F
EVELETH        MOCLDY    -6 -11  77 CALM      30.44F
DULUTH HARBOR  MOCLDY     3  -2  78 CALM      30.53S
TWO HARBORS    PTCLDY     0  -6  78 CALM      30.43F
SILVER BAY     PTCLDY     1  -4  78 CALM      30.42F
GRAND MARAIS     N/A     -5 -10  79 NW3       30.50S
G MARAIS ARPRT PTCLDY    -2  -9  71 W3        30.35S
$$
MNZ029>031-032-039>041-046>048-054>057-064-301300-
   West Central Minnesota

CITY           SKY/WX    TMP DP  RH WIND       PRES   REMARKS
FERGUS FALLS   MOCLDY     9   1  72 S7        30.50S WCI  -3
WHEATON        CLOUDY     9   7  92 SE7       30.50S WCI  -3
MORRIS         PTCLDY     9   5  85 SE3       30.46S
ALEXANDRIA     PTCLDY     8   3  80 S5        30.45S WCI   0
ELBOW LAKE     FAIR       9   4  79 S5        30.46S WCI   1
WADENA         MOCLDY     5   1  85 S3        30.44S
GLENWOOD       PTCLDY     9   3  78 S5        30.46F WCI   0
APPLETON       PTCLDY    10   7  85 CALM      30.49S
BENSON         CLEAR      9   3  78 CALM      30.48F
ORTONVILLE     CLOUDY    12   9  85 SE8       30.46F WCI   1
MADISON        CLOUDY    19  16  86 SE5       30.48F WCI  13
WILLMAR        FAIR      10   7  85 CALM      30.49S
$$
MNZ033>034-036-042>043-049>051-058-059-301300-
   Central Minnesota

CITY           SKY/WX    TMP DP  RH WIND       PRES   REMARKS
ST CLOUD       MOCLDY    10   4  76 CALM      30.50S
6HR MIN TEMP:   9; 6HR MAX TEMP:  11;

SAUK CENTRE    FAIR       8   4  84 CALM      30.47F
PAYNESVILLE    PTCLDY     7   4  88 CALM      30.48F
AITKIN         PTCLDY     7   1  78 CALM      30.46F
PINE RIVER     CLOUDY     3   0  85 CALM      30.47F
BRAINERD       MOCLDY     5   0  79 CALM      30.47F
STAPLES        CLOUDY     5   1  85 CALM      30.45F
LONG PRAIRIE   FAIR       9   3  78 SE3       30.46F
LITTLE FALLS   MOCLDY     9   3  78 CALM      30.49F
LITCHFIELD     PTCLDY    10   9  92 CALM      30.50S
BUFFALO        MOCLDY    11   6  79 CALM      30.51F
MAPLE LAKE     MOCLDY    11   8  87 CALM      30.51S
$$
MNZ037-044-045-052-053-301300-
   East Central Minnesota

CITY           SKY/WX    TMP DP  RH WIND       PRES   REMARKS
PRINCETON      MOCLDY     9   3  78 CALM      30.50R
MORA           MOCLDY     7   1  78 CALM      30.51S
CAMBRIDGE      PTCLDY    10   1  67 CALM      30.50S
RUSH CITY      PTCLDY     7   1  76 CALM      30.51S
MOOSE LAKE     PTCLDY     1  -2  85 CALM      30.47S
HINCKLEY         N/A      7   1  78 CALM      30.50S
CLOQUET        PTCLDY     0  -6  78 W3        30.45F
MCGREGOR       PTCLDY     5   1  85 CALM      30.47F
$$
MNZ071>073-080-081-089-090-097-098-301300-
   Southwest Minnesota

CITY           SKY/WX    TMP DP  RH WIND       PRES   REMARKS
MONTEVIDEO     MOCLDY    10   9  92 S3        30.50S
GRANITE FALLS  CLEAR     10   8  89 S3        30.50F
CANBY          CLOUDY    19  15  87 S6        30.48F WCI  10
MARSHALL       CLOUDY    16  10  79 SW9       30.49S WCI   4
REDWOOD FALLS  CLEAR     12   7  80 CALM      30.50F
OLIVIA         CLEAR     10   9  92 CALM      30.49S
PIPESTONE      CLOUDY    18  16  93 SW8       30.44F WCI   7
WINDOM         CLEAR     10   9  92 CALM      30.48S
WORTHINGTON    CLOUDY    14  10  85 CALM      30.47F
JACKSON        PTCLDY    12   9  85 CALM      30.48S
TRACY          CLOUDY    16  13  87 CALM      30.48F
SLAYTON        CLOUDY    16  14  90 CALM      30.46F
$$
MNZ065>067-074>077-082>085-091>093-301300-
   South Central Minnesota

CITY           SKY/WX    TMP DP  RH WIND       PRES   REMARKS
MANKATO        CLEAR     10   5  79 CALM      30.50F
NEW ULM        CLEAR     10   7  85 CALM      30.50F
ST JAMES       CLEAR     12   9  85 CALM      30.51F
FAIRMONT       CLEAR     12   7  79 CALM      30.48F
GLENCOE        PTCLDY    11   9  91 CALM      30.50F
FARIBAULT      CLEAR      9   7  92 CALM      30.50F
OWATONNA       CLEAR     10   7  85 CALM      30.49F
WASECA         CLEAR     12  10  92 CALM      30.51F
ALBERT LEA     CLEAR     12  10  92 CALM      30.49F
$$
MNZ078>079-086>088-094>096-301300-
   Southeast Minnesota

CITY           SKY/WX    TMP DP  RH WIND       PRES   REMARKS
ROCHESTER      PTCLDY     9   4  80 N3        30.49S
6HR MIN TEMP:   7; 6HR MAX TEMP:  14;

RED WING       PTCLDY     7   3  85 CALM      30.53S
STANTON        PTCLDY    12   7  79 CALM      30.51S
DODGE CENTER   PTCLDY    10   7  85 CALM      30.48F
WINONA         PTCLDY    12   7  79 CALM      30.55S
AUSTIN         CLEAR     10   7  85 CALM      30.49F
PRESTON        PTCLDY     8   4  84 CALM      30.50S
$$
ABBREVIATIONS USED IN REMARKS
   TC - TEMPERATURES IN CELSIUS
  WCI - WIND CHILL INDEX
   HX - HEAT INDEX
  VSB - VISIBILITY
$$


USA.gov is the U.S. government's official web portal to all federal, state and local government web resources and services.